Location: Blanot
(47.1713°N, 4.2340°E)
Time: 08:12:48
(UTC+00:00)

Landsat 5 - Pass Details

Date: 14 July 2020
Orbit: 529 x 654 km, 98.2° (Epoch: 14 August)

Event Time Altitude Azimuth Distance (km) Brightness Sun altitude
Rises 03:07:25 0° 164° (SSE) 2,718 6.6 -8.0°
Reaches altitude 10° 03:09:33 10° 164° (SSE) 1,813 5.7 -7.8°
Maximum altitude 03:13:28 88° 77° (ENE) 545 3.3 -7.3°
Drops below altitude 10° 03:17:19 10° 347° (NNW) 1,792 6.4 -6.8°
Sets 03:19:25 0° 347° (NNW) 2,684 7.3 -6.5°
